Location: Hohe Wand Kleine Kanzel
(47.8330°N, 16.0170°E)
Time: 16:18:44
(UTC+02:00)

Vanguard 3 - Pass Details

Date: 02 August 2021
Orbit: 509 x 3260 km, 33.4° (Epoch: 27 September)

Event Time Altitude Azimuth Distance (km) Brightness Sun altitude
Rises 20:59:52 0° 258° (WSW) 6,127 12.4 -5.2°
Reaches altitude 10° 21:03:39 10° 253° (WSW) 5,408 11.9 -5.7°
Maximum altitude 21:20:04 50° 186° (S) 3,801 10.3 -8.0°
Enters shadow 21:38:10 10° 119° (ESE) 5,911 10.9 -10.3°
